Weather History for KVPZ - February, 2014

Change the Weather History Date:

Friday, February 21, 2014

  Actual Average Record
Temperature  
Mean Temperature 33 °F 29 °F  
Max Temperature 36 °F 37 °F 45 °F (1998)
Min Temperature 29 °F 22 °F 4 °F (2008)
Degree Days  
Heating Degree Days 32 36  
Month to date heating degree days 1035 809  
Since 1 July heating degree days 5107 4494  
Cooling Degree Days 0 0  
Month to date cooling degree days 0 0  
Year to date cooling degree days 0 0  
Moisture  
Dew Point 24 °F    
Average Humidity 73    
Maximum Humidity 89    
Minimum Humidity 54    
Precipitation  
Precipitation T in 0.05 in 0.33 in (2010)
Month to date precipitation 1.68 1.05  
Year to date precipitation 2.63 2.80  
Sea Level Pressure  
Sea Level Pressure 29.66 in    
Wind  
Wind Speed 23 mph (WSW)    
Max Wind Speed 43 mph    
Max Gust Speed 55 mph    
Visibility 9 miles    
Events Snow    
T = Trace of Precipitation, MM = Missing Value Source: NWS Daily Summary

Daily Weather History Graph

Daily Weather History Graph

Search for Another Location

Airport or City:

Trip Planner

Search our weather history database for the weather conditions in past years. The results will help you decide how hot, cold, wet, or windy it might be!

Date:

Astronomy

Feb. 21, 2014 Rise Set
Actual Time 6:34 AM CST 5:29 PM CST
Civil Twilight 6:06 AM CST 5:57 PM CST
Nautical Twilight 5:34 AM CST 6:29 PM CST
Astronomical Twilight 5:02 AM CST 7:01 PM CST
Moon No Moon Rise 9:53 AM CST (2/21)
Length of Visible Light 11h 50m
Length of Day
10h 54m
Waning Gibbous, 60% of the Moon is Illuminated
Feb 21
Waning Gibbous
Feb 22
Last Quarter
Mar 1
New
Mar 8
First Quarter
Mar 16
Full

Hourly Weather History & Observations

Time (CST) Temp. Windchill Dew Point Humidity Pressure Visibility Wind Dir Wind Speed Gust Speed Precip Events Conditions
12:50 AM 35.6 °F 24.2 °F 28.4 °F 75% 29.45 in 10.0 mi SW 21.9 mph 31.1 mph N/A   Overcast
12:53 AM 35.1 °F 23.8 °F 28.9 °F 78% 29.47 in 10.0 mi SW 20.7 mph 29.9 mph N/A   Overcast
1:25 AM 35.1 °F 23.0 °F 28.9 °F 78% 29.46 in 10.0 mi SW 24.2 mph 31.1 mph N/A   Overcast
1:53 AM 34.0 °F 21.5 °F 28.9 °F 82% 29.49 in 10.0 mi SSW 24.2 mph 34.5 mph N/A   Overcast
2:53 AM 35.1 °F 22.2 °F 28.0 °F 76% 29.50 in 10.0 mi SW 27.6 mph 38.0 mph N/A   Overcast
3:53 AM 34.0 °F 21.0 °F 28.9 °F 82% 29.51 in 9.0 mi SW 26.5 mph 39.1 mph 0.00 in Snow Light Snow
4:31 AM 33.1 °F 20.6 °F 28.0 °F 82% 29.51 in 9.0 mi SW 23.0 mph 34.5 mph 0.00 in Snow Light Snow
4:53 AM 33.1 °F 20.6 °F 28.9 °F 85% 29.54 in 5.0 mi SW 23.0 mph 33.4 mph 0.00 in Snow Light Snow
5:53 AM 30.9 °F 18.1 °F 28.0 °F 89% 29.56 in 9.0 mi SW 21.9 mph 35.7 mph 0.00 in Snow Light Snow
6:38 AM 30.0 °F 14.5 °F 27.0 °F 88% 29.56 in 2.0 mi WSW 32.2 mph 46.0 mph 0.00 in Snow Light Snow
6:46 AM 30.0 °F 15.4 °F 27.0 °F 88% 29.56 in 1.8 mi SW 27.6 mph 38.0 mph 0.00 in Snow Light Snow
6:53 AM 30.0 °F 16.0 °F 27.0 °F 88% 29.58 in 1.8 mi WSW 25.3 mph 36.8 mph 0.00 in Snow Light Snow
7:00 AM 30.0 °F 15.7 °F 26.1 °F 85% 29.56 in 3.0 mi WSW 26.5 mph 39.1 mph 0.00 in Snow Light Snow
7:53 AM 30.0 °F 15.4 °F 25.0 °F 82% 29.61 in 9.0 mi WSW 27.6 mph 40.3 mph 0.00 in   Overcast
8:53 AM 28.9 °F 13.5 °F 24.1 °F 82% 29.62 in 10.0 mi WSW 29.9 mph 44.9 mph 0.00 in   Overcast
9:53 AM 28.9 °F 14.8 °F 21.0 °F 72% 29.64 in 10.0 mi SW 24.2 mph 38.0 mph N/A   Overcast
10:46 AM 28.9 °F 12.3 °F 19.0 °F 67% 29.64 in 10.0 mi WSW 35.7 mph 48.3 mph N/A   Scattered Clouds
10:53 AM 28.9 °F 12.8 °F 19.0 °F 67% 29.67 in 10.0 mi WSW 33.4 mph 43.7 mph N/A   Partly Cloudy
11:40 AM 28.9 °F 13.5 °F 19.9 °F 69% 29.66 in 10.0 mi WSW 29.9 mph 40.3 mph N/A   Mostly Cloudy
11:53 AM 30.0 °F 13.6 °F 19.9 °F 66% 29.69 in 10.0 mi WSW 36.8 mph 44.9 mph N/A   Mostly Cloudy
12:14 PM 28.9 °F 11.9 °F 18.0 °F 64% 29.67 in 10.0 mi WSW 38.0 mph 49.5 mph N/A   Partly Cloudy
12:53 PM 30.0 °F 15.2 °F 19.9 °F 66% 29.70 in 10.0 mi WSW 28.8 mph 44.9 mph N/A   Scattered Clouds
1:53 PM 30.9 °F 15.7 °F 19.0 °F 61% 29.72 in 10.0 mi WSW 32.2 mph 46.0 mph N/A   Clear
2:53 PM 30.9 °F 16.4 °F 16.0 °F 54% 29.75 in 10.0 mi WSW 28.8 mph 40.3 mph N/A   Clear
3:53 PM 32.0 °F 19.2 °F 17.1 °F 54% 29.78 in 10.0 mi WSW 23.0 mph 34.5 mph N/A   Clear
4:53 PM 32.0 °F 19.8 °F 18.0 °F 56% 29.80 in 10.0 mi WSW 20.7 mph 27.6 mph N/A   Clear
5:53 PM 30.9 °F 21.2 °F 21.0 °F 67% 29.82 in 10.0 mi SW 12.7 mph - N/A   Clear
6:53 PM 32.0 °F 21.2 °F 23.0 °F 69% 29.84 in 10.0 mi WSW 16.1 mph - N/A   Mostly Cloudy
7:53 PM 33.1 °F 22.6 °F 23.0 °F 66% 29.85 in 10.0 mi WSW 16.1 mph - N/A   Mostly Cloudy
8:53 PM 34.0 °F 25.5 °F 23.0 °F 64% 29.85 in 10.0 mi SW 11.5 mph - N/A   Mostly Cloudy
9:53 PM 35.1 °F 26.9 °F 25.0 °F 67% 29.86 in 10.0 mi SW 11.5 mph - N/A   Overcast
10:53 PM 35.1 °F 27.4 °F 25.0 °F 67% 29.84 in 10.0 mi WSW 10.4 mph - N/A   Overcast
11:53 PM 33.1 °F 23.4 °F 19.9 °F 59% 29.86 in 10.0 mi West 13.8 mph - N/A   Overcast